FENGYUN 4A

Last updated on Tue Oct 28 2025 00:02:22 GMT+0000 (Coordinated Universal Time)

1 41882U 16077A 25300.49763303 -.00000345 00000+0 00000+0 0 9990 2 41882 1.7268 82.7934 0005502 160.2167 95.8338 1.00263152 32592
UTC large
Height (km)
Speed (km/s)
/
Latitude / Longitude
Inclination (degrees)
Orbital Period (minutes)
Azimuth
Elevation
Range (km)
Doppler Factor

Next 0 passes for location: London (51.5072 / 0.1276)

Sorry there are no passes over London.